Retour au catalogue

SL-14 R/B

ActifPO
NORAD 16882·ROCKET BODY·🇷🇺 Russia

Lancé Jul 28, 1986 depuis Plesetsk Cosmodrome

Loading…

Prochains Passages (prochaines 24 heures)

TLE

FraisSource: Space-Track

Époque: Sep 14, 2026, 14:26 UTC

1 16882U 86055B   26257.60140691  .00000277  00000-0  28988-4 0  9993
2 16882  82.5204 309.0752 0020295  68.9907  90.9779 14.85776180147416

Suivez SL-14 R/B en temps réel avec AllMySat

Download on the App Store